Meteo pe oră la Aban

Astăzi, 29 Iulie, Joi

Timp Temperatura Precipitaţii Vânt Presiune Umiditate
00:00 +12°C° 0 mm 4 m/s 734 mmHg 97%
01:00 +12°C° 0.5 mm 4 m/s 734 mmHg 97%
02:00 +12°C° 0.5 mm 4 m/s 734 mmHg 97%
03:00 +12°C° 0.5 mm 4 m/s 734 mmHg 97%
04:00 +12°C° 0.5 mm 4 m/s 734 mmHg 97%
05:00 +12°C° 0.5 mm 4 m/s 734 mmHg 97%
06:00 +12°C° 0 mm 4 m/s 734 mmHg 97%
07:00 +12°C° 0.9 mm 4 m/s 734 mmHg 97%
08:00 +13°C° 0.9 mm 4 m/s 734 mmHg 96%
09:00 +13°C° 0.9 mm 5 m/s 734 mmHg 96%
10:00 +13°C° 0.1 mm 4 m/s 735 mmHg 95%
11:00 +14°C° 0.1 mm 4 m/s 735 mmHg 93%
12:00 +14°C° 0.1 mm 4 m/s 735 mmHg 92%
13:00 +14°C° 0.1 mm 4 m/s 735 mmHg 89%
14:00 +15°C° 0.1 mm 4 m/s 735 mmHg 87%
15:00 +15°C° 0.1 mm 4 m/s 736 mmHg 84%
16:00 +14°C° 0 mm 3 m/s 736 mmHg 85%
17:00 +14°C° 0 mm 3 m/s 736 mmHg 86%
18:00 +15°C° 0 mm 2 m/s 736 mmHg 87%
19:00 +14°C° 0 mm 2 m/s 736 mmHg 88%
20:00 +14°C° 0 mm 2 m/s 736 mmHg 89%
21:00 +14°C° 0 mm 2 m/s 736 mmHg 90%
22:00 +14°C° 0 mm 2 m/s 736 mmHg 90%
23:00 +14°C° 0 mm 2 m/s 736 mmHg 90%

Mâine, 30 Iulie, Vineri

Timp Temperatura Precipitaţii Vânt Presiune Umiditate
00:00 +14°C° 0 mm 2 m/s 736 mmHg 89%
01:00 +14°C° 0 mm 1 m/s 736 mmHg 90%
02:00 +13°C° 0 mm 1 m/s 736 mmHg 90%
03:00 +13°C° 0 mm 1 m/s 736 mmHg 90%
04:00 +14°C° 0 mm 1 m/s 736 mmHg 87%
05:00 +14°C° 0 mm 1 m/s 737 mmHg 84%
06:00 +15°C° 0 mm 1 m/s 737 mmHg 81%
07:00 +18°C° 0 mm 1 m/s 737 mmHg 73%
08:00 +20°C° 0 mm 1 m/s 737 mmHg 65%
09:00 +21°C° 0 mm 1 m/s 737 mmHg 57%
10:00 +22°C° 0 mm 1 m/s 737 mmHg 53%
11:00 +23°C° 0 mm 1 m/s 737 mmHg 50%
12:00 +24°C° 0 mm 1 m/s 737 mmHg 46%
13:00 +24°C° 0 mm 1 m/s 736 mmHg 46%
14:00 +24°C° 0 mm 1 m/s 736 mmHg 45%
15:00 +24°C° 0 mm 1 m/s 736 mmHg 45%
16:00 +24°C° 0 mm 1 m/s 736 mmHg 51%
17:00 +23°C° 0 mm 1 m/s 736 mmHg 57%
18:00 +22°C° 0 mm 1 m/s 737 mmHg 63%
19:00 +21°C° 0 mm 1 m/s 737 mmHg 66%
20:00 +19°C° 0 mm 1 m/s 737 mmHg 69%
21:00 +16°C° 0 mm 1 m/s 737 mmHg 73%
22:00 +16°C° 0 mm 1 m/s 737 mmHg 74%
23:00 +16°C° 0 mm 1 m/s 737 mmHg 74%

Poimâine, 31 Iulie, Sâmbătă

Timp Temperatura Precipitaţii Vânt Presiune Umiditate
00:00 +15°C° 0 mm 1 m/s 737 mmHg 75%
01:00 +15°C° 0 mm 1 m/s 738 mmHg 77%
02:00 +14°C° 0 mm 1 m/s 738 mmHg 79%
03:00 +14°C° 0 mm 1 m/s 738 mmHg 81%
04:00 +15°C° 0 mm 1 m/s 739 mmHg 79%
05:00 +16°C° 0 mm 1 m/s 739 mmHg 76%
06:00 +18°C° 0 mm 1 m/s 740 mmHg 73%
07:00 +19°C° 0 mm 1 m/s 740 mmHg 69%
08:00 +20°C° 0 mm 1 m/s 740 mmHg 66%
09:00 +20°C° 0 mm 2 m/s 741 mmHg 62%
10:00 +21°C° 0 mm 2 m/s 741 mmHg 60%
11:00 +23°C° 0 mm 2 m/s 741 mmHg 57%
12:00 +23°C° 0 mm 2 m/s 741 mmHg 55%
13:00 +23°C° 0 mm 2 m/s 740 mmHg 54%
14:00 +23°C° 0 mm 2 m/s 740 mmHg 54%
15:00 +23°C° 0 mm 2 m/s 740 mmHg 54%
16:00 +23°C° 0 mm 2 m/s 740 mmHg 59%
17:00 +21°C° 0 mm 2 m/s 740 mmHg 64%
18:00 +21°C° 0 mm 1 m/s 740 mmHg 70%
19:00 +20°C° 0 mm 1 m/s 740 mmHg 73%
20:00 +19°C° 0 mm 1 m/s 740 mmHg 76%
21:00 +18°C° 0 mm 1 m/s 739 mmHg 79%
22:00 +18°C° 0 mm 1 m/s 739 mmHg 78%
23:00 +18°C° 0 mm 1 m/s 739 mmHg 77%

1 August, Duminică

Timp Temperatura Precipitaţii Vânt Presiune Umiditate
00:00 +18°C° 0 mm 1 m/s 739 mmHg 76%
01:00 +16°C° 0.1 mm 1 m/s 739 mmHg 79%
02:00 +16°C° 0.1 mm 1 m/s 739 mmHg 82%
03:00 +14°C° 0.1 mm 0 m/s 739 mmHg 85%
04:00 +15°C° 0.2 mm 1 m/s 739 mmHg 87%
05:00 +15°C° 0.2 mm 1 m/s 739 mmHg 89%
06:00 +15°C° 0.2 mm 1 m/s 739 mmHg 92%
07:00 +16°C° 0.1 mm 1 m/s 739 mmHg 90%
08:00 +16°C° 0.1 mm 1 m/s 738 mmHg 89%
09:00 +18°C° 0.1 mm 1 m/s 738 mmHg 88%
10:00 +18°C° 0.2 mm 1 m/s 738 mmHg 88%
11:00 +18°C° 0.2 mm 1 m/s 738 mmHg 88%
12:00 +18°C° 0.2 mm 1 m/s 738 mmHg 88%
13:00 +18°C° 0.1 mm 1 m/s 737 mmHg 85%
14:00 +19°C° 0.1 mm 1 m/s 737 mmHg 82%
15:00 +18°C° 0.1 mm 2 m/s 737 mmHg 79%
16:00 +18°C° 0 mm 2 m/s 737 mmHg 80%
17:00 +18°C° 0 mm 2 m/s 737 mmHg 81%
18:00 +17°C° 0 mm 2 m/s 737 mmHg 82%
19:00 +16°C° 0 mm 1 m/s 737 mmHg 87%
20:00 +15°C° 0 mm 1 m/s 736 mmHg 91%
21:00 +13°C° 0 mm 1 m/s 736 mmHg 96%
22:00 +12°C° 0 mm 0 m/s 736 mmHg 96%
23:00 +12°C° 0 mm 0 m/s 736 mmHg 95%

2 August, Luni

Timp Temperatura Precipitaţii Vânt Presiune Umiditate
00:00 +11°C° 0 mm 0 m/s 735 mmHg 95%
01:00 +11°C° 0 mm 0 m/s 735 mmHg 95%
02:00 +11°C° 0 mm 0 m/s 735 mmHg 95%
03:00 +11°C° 0 mm 0 m/s 735 mmHg 95%
04:00 +12°C° 0 mm 0 m/s 735 mmHg 93%
05:00 +14°C° 0 mm 1 m/s 735 mmHg 91%
06:00 +15°C° 0 mm 1 m/s 735 mmHg 88%
07:00 +16°C° 0 mm 1 m/s 735 mmHg 82%
08:00 +19°C° 0 mm 1 m/s 735 mmHg 77%
09:00 +20°C° 0 mm 1 m/s 735 mmHg 71%
10:00 +22°C° 0 mm 1 m/s 734 mmHg 64%
11:00 +23°C° 0 mm 1 m/s 734 mmHg 57%
12:00 +25°C° 0 mm 1 m/s 734 mmHg 51%
13:00 +25°C° 0.1 mm 2 m/s 733 mmHg 52%
14:00 +25°C° 0.1 mm 2 m/s 733 mmHg 52%
15:00 +25°C° 0.1 mm 2 m/s 733 mmHg 53%
16:00 +24°C° 0.2 mm 2 m/s 733 mmHg 61%
17:00 +23°C° 0.2 mm 1 m/s 732 mmHg 69%
18:00 +22°C° 0.2 mm 1 m/s 732 mmHg 77%
19:00 +20°C° 0.3 mm 1 m/s 732 mmHg 81%
20:00 +18°C° 0.3 mm 1 m/s 732 mmHg 85%
21:00 +15°C° 0.3 mm 2 m/s 732 mmHg 88%
22:00 +14°C° 0 mm 1 m/s 732 mmHg 88%
23:00 +14°C° 0 mm 1 m/s 732 mmHg 88%

3 August, Marţi

Timp Temperatura Precipitaţii Vânt Presiune Umiditate
00:00 +13°C° 0 mm 1 m/s 731 mmHg 87%
01:00 +13°C° 0 mm 1 m/s 731 mmHg 89%
02:00 +13°C° 0 mm 2 m/s 731 mmHg 91%
03:00 +13°C° 0 mm 2 m/s 731 mmHg 92%
04:00 +14°C° 0 mm 2 m/s 731 mmHg 91%
05:00 +15°C° 0 mm 1 m/s 731 mmHg 90%
06:00 +16°C° 0 mm 1 m/s 731 mmHg 88%
07:00 +17°C° 0 mm 2 m/s 731 mmHg 83%
08:00 +19°C° 0 mm 2 m/s 731 mmHg 77%
09:00 +20°C° 0 mm 2 m/s 731 mmHg 71%
10:00 +20°C° 0 mm 2 m/s 731 mmHg 71%
11:00 +20°C° 0 mm 2 m/s 731 mmHg 72%
12:00 +20°C° 0 mm 2 m/s 731 mmHg 73%
13:00 +23°C° 0 mm 2 m/s 731 mmHg 67%
14:00 +24°C° 0 mm 2 m/s 731 mmHg 60%
15:00 +26°C° 0 mm 2 m/s 731 mmHg 54%
16:00 +24°C° 0.2 mm 2 m/s 731 mmHg 65%
17:00 +21°C° 0.2 mm 2 m/s 731 mmHg 75%
18:00 +20°C° 0.2 mm 2 m/s 731 mmHg 86%
19:00 +19°C° 0 mm 2 m/s 731 mmHg 89%
20:00 +19°C° 0 mm 2 m/s 731 mmHg 91%
21:00 +18°C° 0 mm 2 m/s 732 mmHg 93%
22:00 +17°C° 0 mm 2 m/s 732 mmHg 94%
23:00 +17°C° 0 mm 2 m/s 732 mmHg 95%
Arată mai mult

Formular de consimțământ

Meteoprog și furnizorii noștri de servicii pot stoca și accesa date personale, precum cookies, identificatori de dispozitiv sau alte tehnologii similare pe dispozitivul dumneavoastră și procesa astfel de date pentru a personaliza conținutul și reclamele, dar și pentru a oferi caracteristici de social media și pentru a analiza traficul.

  • Stocarea și/sau accesarea informațiilor pe dispozitivul dumneavoastră

    Cookies, identificatori de dispozitiv sau alte informații pot fi stocate sau accesate pe dispozitiv în scopurile indicate mai sus.

  • Reclame și conținut personalizat, evaluarea reclamelor și a conținutului, informații despre audiențe și dezvoltarea produselor

    Reclamele și conținutul pot fi personalizate pe baza unui profil. Pot fi adăugate date suplimentare pentru a personaliza mai bine reclamele și conținutul. Performanța reclamelor și conținutului poate fi măsurată. Pot fi obținute informații despre utilizatorii care au văzut reclamele și conținutul. Aceste date pot fi utilizate pentru a dezvolta sau îmbunătăți experiența utilizatorilor, sistemele și software-ul.

Dând clic pe ‘Sunt de acord’, permiteți utilizarea cookie-urilor menționate, a identificatorilor de dispozitiv, balizelor web sau altor tehnologii similare. Setările pot fi modificate din browser-ul dispozitivului dumneavoastră.

În anumite scopuri, interesele legitime pot prima asupra consimțământului. Puteți citi mai multe informații în acest sens în Politica privind Confidențialitatea Datelor și Cookie.